CCA2997 ZBTJ-ZYHB

Flight info

Callsign CCA2997
Flight time 1h 36m
Altitude 37100
Route MUGLO1T MUGLO W34 OTBUL W35 CHG A575 PU W89 NUBKI A588 NULRA W206 MAGBI W656 ISLUK W629 LARUN LAR09A
Aircraft B738/M-SDE2E3FGHIRWXY/LB1

Departure

Time 2026-04-26 12:48
Airport Tianjin Binhai International Airport (ZBTJ)

Arrival

Time 2026-04-26 14:24
Airport Harbin Taiping International Airport (ZYHB)
Time Latitude Longitude Altitude Speed Heading
2026-04-26 12:16 39.12682 117.35995 28 ft 0 kts 218°
2026-04-26 12:34 39.12683 117.35997 28 ft 1 kts 218°
2026-04-26 12:34 39.12694 117.36009 29 ft 2 kts 218°
2026-04-26 12:34 39.12707 117.36021 29 ft 2 kts 218°
2026-04-26 12:35 39.12718 117.36033 28 ft 2 kts 218°
2026-04-26 12:35 39.12726 117.36041 28 ft 1 kts 218°
2026-04-26 12:35 39.12739 117.36049 28 ft 2 kts 185°
2026-04-26 12:35 39.12754 117.36047 28 ft 2 kts 157°
2026-04-26 12:36 39.12767 117.36036 28 ft 2 kts 127°
2026-04-26 12:36 39.12772 117.36026 28 ft 1 kts 110°
2026-04-26 12:36 39.12774 117.36019 28 ft 0 kts 110°
2026-04-26 12:39 39.12771 117.36026 28 ft 1 kts 110°
2026-04-26 12:39 39.12766 117.36043 28 ft 2 kts 113°
2026-04-26 12:39 39.12758 117.36069 28 ft 3 kts 113°
2026-04-26 12:39 39.12745 117.36107 28 ft 5 kts 113°
2026-04-26 12:40 39.12725 117.36159 27 ft 7 kts 122°
2026-04-26 12:40 39.12692 117.36221 26 ft 9 kts 124°
2026-04-26 12:40 39.12684 117.36304 25 ft 10 kts 71°
2026-04-26 12:40 39.12716 117.36397 24 ft 11 kts 64°
2026-04-26 12:41 39.12755 117.36498 23 ft 13 kts 64°
2026-04-26 12:41 39.12797 117.36612 22 ft 14 kts 64°
2026-04-26 12:41 39.12841 117.36731 21 ft 14 kts 64°
2026-04-26 12:41 39.12916 117.36776 19 ft 14 kts 340°
2026-04-26 12:42 39.13006 117.36724 17 ft 14 kts 334°
2026-04-26 12:42 39.13097 117.36666 16 ft 14 kts 332°
2026-04-26 12:42 39.13190 117.36609 14 ft 14 kts 334°
2026-04-26 12:42 39.13279 117.36557 12 ft 14 kts 333°
2026-04-26 12:43 39.13371 117.36499 11 ft 15 kts 334°
2026-04-26 12:43 39.13471 117.36437 12 ft 15 kts 334°
2026-04-26 12:43 39.13553 117.36388 16 ft 11 kts 334°
2026-04-26 12:43 39.13614 117.36350 19 ft 8 kts 334°
2026-04-26 12:44 39.13665 117.36318 22 ft 7 kts 335°
2026-04-26 12:44 39.13705 117.36294 25 ft 5 kts 334°
2026-04-26 12:44 39.13732 117.36277 28 ft 3 kts 333°
2026-04-26 12:44 39.13754 117.36262 29 ft 4 kts 333°
2026-04-26 12:45 39.13795 117.36238 29 ft 8 kts 336°
2026-04-26 12:45 39.13864 117.36197 28 ft 12 kts 334°
2026-04-26 12:45 39.13953 117.36142 26 ft 15 kts 335°
2026-04-26 12:45 39.14035 117.36095 25 ft 7 kts 342°
2026-04-26 12:46 39.14081 117.36124 23 ft 7 kts 55°
2026-04-26 12:46 39.14092 117.36149 23 ft 0 kts 61°
2026-04-26 12:46 39.14097 117.36161 23 ft 3 kts 62°
2026-04-26 12:46 39.14116 117.36212 21 ft 8 kts 69°
2026-04-26 12:47 39.14100 117.36285 21 ft 8 kts 147°
2026-04-26 12:47 39.14085 117.36295 21 ft 0 kts 154°
2026-04-26 12:47 39.13997 117.36350 23 ft 43 kts 154°
2026-04-26 12:47 39.13509 117.36651 24 ft 110 kts 154°
2026-04-26 12:48 39.12627 117.37198 52 ft 161 kts 153°
2026-04-26 12:48 39.11655 117.37792 741 ft 156 kts 153°
2026-04-26 12:48 39.10665 117.38416 1331 ft 162 kts 153°
2026-04-26 12:48 39.09625 117.39060 1829 ft 169 kts 154°
2026-04-26 12:49 39.08503 117.39748 2124 ft 185 kts 154°
2026-04-26 12:49 39.07278 117.40502 2355 ft 205 kts 154°
2026-04-26 12:49 39.05912 117.41344 2622 ft 228 kts 154°
2026-04-26 12:49 39.04428 117.42261 3167 ft 242 kts 154°
2026-04-26 12:50 39.02858 117.43229 3731 ft 254 kts 154°
2026-04-26 12:50 39.01253 117.44218 4448 ft 259 kts 155°
2026-04-26 12:50 38.99600 117.45232 5136 ft 265 kts 153°
2026-04-26 12:50 38.98038 117.46538 5739 ft 272 kts 132°
2026-04-26 12:51 38.97145 117.48667 6466 ft 271 kts 98°
2026-04-26 12:51 38.97265 117.51082 7211 ft 271 kts 74°
2026-04-26 12:51 38.97715 117.53461 7902 ft 277 kts 77°
2026-04-26 12:51 38.98038 117.55935 8630 ft 282 kts 79°
2026-04-26 12:52 38.98344 117.58445 9353 ft 286 kts 79°
2026-04-26 12:52 38.98652 117.60989 10069 ft 291 kts 79°
2026-04-26 12:52 38.98967 117.63644 10387 ft 311 kts 79°
2026-04-26 12:52 38.99238 117.65955 10515 ft 331 kts 81°
2026-04-26 12:53 38.99359 117.69113 10756 ft 353 kts 94°
2026-04-26 12:53 38.98689 117.72489 11434 ft 362 kts 116°
2026-04-26 12:53 38.97356 117.75272 12175 ft 365 kts 124°
2026-04-26 12:53 38.95968 117.77930 12667 ft 374 kts 123°
2026-04-26 12:54 38.94498 117.80838 13442 ft 377 kts 123°
2026-04-26 12:54 38.93055 117.83685 14067 ft 383 kts 123°
2026-04-26 12:54 38.91572 117.86591 14725 ft 389 kts 122°
2026-04-26 12:54 38.90073 117.89526 15380 ft 393 kts 122°
2026-04-26 12:55 38.88556 117.92492 16025 ft 398 kts 122°
2026-04-26 12:55 38.87006 117.95520 16622 ft 403 kts 122°
2026-04-26 12:55 38.85466 117.98527 17174 ft 409 kts 122°
2026-04-26 12:55 38.84033 118.01674 17713 ft 413 kts 115°
2026-04-26 12:56 38.82911 118.05093 18241 ft 416 kts 105°
2026-04-26 12:56 38.82206 118.08711 18757 ft 419 kts 98°
2026-04-26 12:56 38.81657 118.12373 19264 ft 424 kts 98°
2026-04-26 12:56 38.81065 118.16145 19746 ft 430 kts 99°
2026-04-26 12:57 38.80460 118.19885 20226 ft 435 kts 99°
2026-04-26 12:57 38.79839 118.23752 20673 ft 440 kts 98°
2026-04-26 12:57 38.79332 118.27571 21100 ft 443 kts 91°
2026-04-26 12:58 38.80381 118.35226 21982 ft 432 kts 56°
2026-04-26 12:58 38.82075 118.38451 22407 ft 426 kts 43°
2026-04-26 12:58 38.83784 118.40678 22777 ft 420 kts 32°
2026-04-26 12:58 38.86369 118.42690 23125 ft 412 kts 16°
2026-04-26 12:59 38.88995 118.44024 23649 ft 411 kts 14°
2026-04-26 12:59 38.91730 118.45453 23825 ft 422 kts 15°
2026-04-26 12:59 38.94414 118.46934 24189 ft 427 kts 15°
2026-04-26 12:59 38.97192 118.48444 24401 ft 434 kts 13°
2026-04-26 13:00 39.00030 118.49689 24685 ft 433 kts
2026-04-26 13:00 39.02947 118.50629 24968 ft 436 kts
2026-04-26 13:00 39.05931 118.51549 25286 ft 441 kts
2026-04-26 13:00 39.08882 118.52489 25677 ft 444 kts
2026-04-26 13:01 39.11635 118.53359 25946 ft 448 kts
2026-04-26 13:01 39.14808 118.54353 26396 ft 449 kts
2026-04-26 13:01 39.17828 118.55295 26780 ft 451 kts
2026-04-26 13:01 39.20880 118.56250 27076 ft 455 kts
2026-04-26 13:02 39.23969 118.57218 27406 ft 457 kts
2026-04-26 13:02 39.27054 118.58186 27717 ft 460 kts
2026-04-26 13:02 39.30132 118.59148 27969 ft 464 kts
2026-04-26 13:02 39.33292 118.60120 28314 ft 465 kts
2026-04-26 13:03 39.36469 118.61102 28604 ft 468 kts
2026-04-26 13:03 39.39603 118.62071 28858 ft 471 kts
2026-04-26 13:03 39.42807 118.63060 29145 ft 473 kts
2026-04-26 13:03 39.45964 118.64032 29388 ft 476 kts
2026-04-26 13:04 39.49121 118.65005 29553 ft 481 kts
2026-04-26 13:04 39.52411 118.66030 29862 ft 481 kts
2026-04-26 13:04 39.55692 118.67060 30332 ft 477 kts
2026-04-26 13:04 39.58889 118.68063 30791 ft 474 kts
2026-04-26 13:05 39.62039 118.69052 31203 ft 471 kts
2026-04-26 13:05 39.65283 118.70056 31377 ft 474 kts
2026-04-26 13:05 39.68440 118.71034 31807 ft 471 kts
2026-04-26 13:05 39.71635 118.72113 32213 ft 473 kts
2026-04-26 13:06 39.74668 118.73566 32537 ft 487 kts 16°
2026-04-26 13:06 39.77599 118.75871 32664 ft 506 kts 26°
2026-04-26 13:06 39.80426 118.78592 32896 ft 509 kts 27°
2026-04-26 13:06 39.83264 118.81317 33158 ft 509 kts 26°
2026-04-26 13:07 39.86088 118.83954 33410 ft 508 kts 26°
2026-04-26 13:07 39.88970 118.86599 33634 ft 509 kts 25°
2026-04-26 13:07 39.91851 118.89252 33843 ft 511 kts 26°
2026-04-26 13:07 39.94673 118.91875 34103 ft 511 kts 26°
2026-04-26 13:08 39.97591 118.94617 34467 ft 509 kts 26°
2026-04-26 13:08 40.00405 118.97266 34774 ft 507 kts 26°
2026-04-26 13:08 40.03250 118.99929 35102 ft 505 kts 25°
2026-04-26 13:08 40.06094 119.02593 35386 ft 504 kts 26°
2026-04-26 13:09 40.08928 119.05270 35682 ft 503 kts 26°
2026-04-26 13:09 40.11693 119.07885 35923 ft 503 kts 26°
2026-04-26 13:09 40.14518 119.10561 36272 ft 499 kts 26°
2026-04-26 13:09 40.17263 119.13168 36602 ft 497 kts 25°
2026-04-26 13:10 40.20051 119.15819 36839 ft 497 kts 25°
2026-04-26 13:10 40.22811 119.18436 36969 ft 499 kts 26°
2026-04-26 13:10 40.28411 119.23764 37066 ft 502 kts 25°
2026-04-26 13:11 40.34025 119.28989 37066 ft 499 kts 25°
2026-04-26 13:11 40.39644 119.34234 37073 ft 499 kts 25°
2026-04-26 13:12 40.45242 119.39524 37079 ft 501 kts 25°
2026-04-26 13:12 40.50900 119.44855 37085 ft 501 kts 25°
2026-04-26 13:13 40.56542 119.50188 37088 ft 498 kts 25°
2026-04-26 13:13 40.62132 119.55459 37092 ft 500 kts 25°
2026-04-26 13:14 40.67754 119.60700 37090 ft 499 kts 25°
2026-04-26 13:14 40.73365 119.66012 37085 ft 498 kts 26°
2026-04-26 13:15 40.78949 119.71358 37090 ft 501 kts 26°
2026-04-26 13:15 40.83628 119.75851 37093 ft 501 kts 26°
2026-04-26 13:16 40.90139 119.82055 37094 ft 501 kts 26°
2026-04-26 13:16 40.95763 119.87407 37093 ft 499 kts 25°
2026-04-26 13:17 41.04180 119.95473 37093 ft 497 kts 26°
2026-04-26 13:18 41.12516 120.03437 37093 ft 495 kts 25°
2026-04-26 13:19 41.20909 120.11469 37093 ft 497 kts 26°
2026-04-26 13:19 41.26569 120.16943 37091 ft 496 kts 26°
2026-04-26 13:20 41.32246 120.22476 37092 ft 495 kts 26°
2026-04-26 13:20 41.37900 120.27996 37094 ft 497 kts 26°
2026-04-26 13:21 41.43557 120.33510 37092 ft 496 kts 26°
2026-04-26 13:21 41.49052 120.39288 37092 ft 508 kts 36°
2026-04-26 13:21 41.51333 120.42926 37090 ft 522 kts 51°
2026-04-26 13:22 41.52943 120.47412 37099 ft 533 kts 67°
2026-04-26 13:22 41.54459 120.57249 37094 ft 541 kts 84°
2026-04-26 13:23 41.54900 120.67311 37092 ft 540 kts 86°
2026-04-26 13:23 41.55398 120.77388 37097 ft 540 kts 85°
2026-04-26 13:24 41.55916 120.87476 37108 ft 542 kts 86°
2026-04-26 13:24 41.56424 120.97568 37120 ft 541 kts 86°
2026-04-26 13:25 41.56920 121.07596 37120 ft 541 kts 85°
2026-04-26 13:25 41.57402 121.17724 37120 ft 543 kts 85°
2026-04-26 13:26 41.58115 121.27885 37120 ft 542 kts 81°
2026-04-26 13:26 41.59018 121.37880 37120 ft 541 kts 81°
2026-04-26 13:27 41.59815 121.47956 37120 ft 542 kts 83°
2026-04-26 13:27 41.60548 121.58050 37120 ft 541 kts 82°
2026-04-26 13:28 41.61315 121.68130 37121 ft 541 kts 82°
2026-04-26 13:28 41.62108 121.78191 37120 ft 542 kts 83°
2026-04-26 13:29 41.62859 121.88270 37120 ft 543 kts 83°
2026-04-26 13:29 41.63609 121.98387 37119 ft 542 kts 83°
2026-04-26 13:30 41.64066 122.08478 37122 ft 543 kts 90°
2026-04-26 13:30 41.63466 122.18613 37119 ft 543 kts 98°
2026-04-26 13:31 41.62396 122.28672 37120 ft 543 kts 99°
2026-04-26 13:31 41.61327 122.38759 37120 ft 542 kts 99°
2026-04-26 13:32 41.60271 122.48803 37119 ft 542 kts 99°
2026-04-26 13:32 41.59139 122.58791 37120 ft 542 kts 100°
2026-04-26 13:33 41.57944 122.68730 37120 ft 542 kts 101°
2026-04-26 13:33 41.56723 122.78764 37121 ft 542 kts 101°
2026-04-26 13:34 41.55517 122.88755 37119 ft 542 kts 101°
2026-04-26 13:34 41.54305 122.98669 37120 ft 540 kts 100°
2026-04-26 13:35 41.53105 123.08601 37120 ft 537 kts 100°
2026-04-26 13:35 41.51974 123.18430 37115 ft 536 kts 95°
2026-04-26 13:35 41.51971 123.23480 37127 ft 535 kts 83°
2026-04-26 13:36 41.52386 123.28406 37120 ft 535 kts 78°
2026-04-26 13:36 41.54438 123.37746 37124 ft 519 kts 55°
2026-04-26 13:37 41.58112 123.46008 37119 ft 517 kts 51°
2026-04-26 13:37 41.61736 123.54384 37120 ft 516 kts 53°
2026-04-26 13:38 41.65281 123.62622 37120 ft 517 kts 52°
2026-04-26 13:38 41.68868 123.70844 37120 ft 518 kts 53°
2026-04-26 13:39 41.72139 123.79452 37121 ft 522 kts 61°
2026-04-26 13:39 41.74998 123.88477 37120 ft 524 kts 61°
2026-04-26 13:40 41.78000 123.97609 37121 ft 524 kts 60°
2026-04-26 13:40 41.80930 124.06589 37120 ft 524 kts 61°
2026-04-26 13:41 41.83859 124.15717 37118 ft 524 kts 61°
2026-04-26 13:41 41.86773 124.24824 37120 ft 524 kts 61°
2026-04-26 13:42 41.89678 124.33817 37119 ft 524 kts 60°
2026-04-26 13:42 41.92580 124.42792 37120 ft 523 kts 60°
2026-04-26 13:43 41.95472 124.51781 37120 ft 523 kts 59°
2026-04-26 13:43 41.97197 124.56038 37114 ft 512 kts 46°
2026-04-26 13:43 41.99530 124.59580 37127 ft 493 kts 31°
2026-04-26 13:44 42.04790 124.65454 37110 ft 484 kts 24°
2026-04-26 13:44 42.07612 124.67619 37124 ft 464 kts 13°
2026-04-26 13:44 42.10594 124.69289 37122 ft 460 kts 11°
2026-04-26 13:45 42.16523 124.72835 37119 ft 469 kts 15°
2026-04-26 13:45 42.22258 124.76659 37118 ft 470 kts 15°
2026-04-26 13:46 42.28025 124.80556 37120 ft 472 kts 15°
2026-04-26 13:46 42.33663 124.84370 37120 ft 470 kts 15°
2026-04-26 13:47 42.39473 124.88312 37120 ft 470 kts 16°
2026-04-26 13:47 42.45283 124.92342 37119 ft 471 kts 17°
2026-04-26 13:48 42.51118 124.96439 37122 ft 469 kts 16°
2026-04-26 13:48 42.56962 125.00477 37120 ft 470 kts 16°
2026-04-26 13:49 42.62839 125.04546 37119 ft 468 kts 16°
2026-04-26 13:49 42.68591 125.08566 37121 ft 468 kts 16°
2026-04-26 13:50 42.74448 125.12643 37119 ft 468 kts 16°
2026-04-26 13:50 42.80296 125.16747 37123 ft 470 kts 17°
2026-04-26 13:51 42.86084 125.20855 37120 ft 469 kts 16°
2026-04-26 13:51 42.91912 125.24939 37120 ft 469 kts 17°
2026-04-26 13:52 42.97732 125.29023 37120 ft 467 kts 18°
2026-04-26 13:52 43.03522 125.33068 37120 ft 465 kts 18°
2026-04-26 13:53 43.09296 125.37063 37120 ft 466 kts 18°
2026-04-26 13:53 43.15080 125.41046 37122 ft 465 kts 18°
2026-04-26 13:54 43.20857 125.45053 37122 ft 465 kts 18°
2026-04-26 13:54 43.26622 125.49102 37120 ft 465 kts 18°
2026-04-26 13:55 43.34380 125.54556 37119 ft 465 kts 18°
2026-04-26 13:56 43.44012 125.61351 37121 ft 466 kts 18°
2026-04-26 13:56 43.49770 125.65437 37118 ft 466 kts 19°
2026-04-26 13:57 43.55545 125.69529 37120 ft 468 kts 19°
2026-04-26 13:57 43.61378 125.73671 37119 ft 467 kts 19°
2026-04-26 13:58 43.67160 125.77793 37119 ft 466 kts 19°
2026-04-26 13:58 43.72934 125.81899 37119 ft 465 kts 18°
2026-04-26 13:59 43.78851 125.85282 37119 ft 449 kts
2026-04-26 13:59 43.84938 125.86611 37121 ft 442 kts 359°
2026-04-26 14:00 43.94022 125.89214 37120 ft 462 kts 18°
2026-04-26 14:00 43.96812 125.91492 37124 ft 470 kts 25°
2026-04-26 14:01 44.02080 125.96958 37120 ft 478 kts 31°
2026-04-26 14:01 44.07493 126.02055 37121 ft 460 kts 12°
2026-04-26 14:02 44.13499 126.04398 36829 ft 438 kts
2026-04-26 14:02 44.16472 126.05087 36260 ft 432 kts 359°
2026-04-26 14:02 44.19448 126.05727 35587 ft 432 kts 359°
2026-04-26 14:02 44.22419 126.06392 34932 ft 430 kts 360°
2026-04-26 14:03 44.25382 126.07066 34228 ft 430 kts 360°
2026-04-26 14:03 44.28358 126.07750 33488 ft 431 kts
2026-04-26 14:03 44.31330 126.08459 32741 ft 432 kts
2026-04-26 14:03 44.34304 126.09167 31782 ft 436 kts
2026-04-26 14:04 44.37293 126.09850 30791 ft 441 kts
2026-04-26 14:04 44.40326 126.10554 30072 ft 438 kts
2026-04-26 14:04 44.43348 126.11256 29412 ft 434 kts
2026-04-26 14:04 44.46297 126.11928 28825 ft 428 kts
2026-04-26 14:05 44.49256 126.12585 28160 ft 424 kts
2026-04-26 14:05 44.52107 126.13217 27617 ft 418 kts
2026-04-26 14:05 44.55001 126.13854 27016 ft 413 kts
2026-04-26 14:05 44.57853 126.14492 26381 ft 410 kts
2026-04-26 14:06 44.60663 126.15122 25708 ft 408 kts
2026-04-26 14:06 44.63491 126.15749 25113 ft 403 kts
2026-04-26 14:06 44.66239 126.16356 24560 ft 398 kts
2026-04-26 14:06 44.68997 126.16957 23919 ft 395 kts
2026-04-26 14:07 44.71679 126.17523 23320 ft 391 kts
2026-04-26 14:07 44.74381 126.17869 22693 ft 384 kts 356°
2026-04-26 14:07 44.77047 126.18049 22104 ft 380 kts 356°
2026-04-26 14:07 44.79677 126.18258 21493 ft 378 kts 357°
2026-04-26 14:08 44.82325 126.18496 20895 ft 375 kts 357°
2026-04-26 14:08 44.84914 126.18728 20322 ft 371 kts 358°
2026-04-26 14:08 44.87491 126.18956 19725 ft 368 kts 358°
2026-04-26 14:08 44.90045 126.19185 19164 ft 365 kts 358°
2026-04-26 14:09 44.92568 126.19412 18566 ft 362 kts 358°
2026-04-26 14:09 44.95082 126.19640 17999 ft 359 kts 358°
2026-04-26 14:09 44.97524 126.19861 17412 ft 357 kts 358°
2026-04-26 14:09 45.00023 126.20087 16795 ft 355 kts 359°
2026-04-26 14:10 45.02457 126.20020 16160 ft 349 kts 346°
2026-04-26 14:10 45.04732 126.18984 15559 ft 337 kts 327°
2026-04-26 14:10 45.06625 126.17107 14979 ft 328 kts 313°
2026-04-26 14:10 45.08073 126.14665 14357 ft 321 kts 297°
2026-04-26 14:11 45.09503 126.08776 13158 ft 314 kts 283°
2026-04-26 14:11 45.10122 126.05814 12629 ft 311 kts 284°
2026-04-26 14:11 45.10733 126.02886 12111 ft 307 kts 283°
2026-04-26 14:12 45.11328 125.99979 11602 ft 304 kts 283°
2026-04-26 14:12 45.11919 125.97084 11100 ft 301 kts 284°
2026-04-26 14:12 45.12499 125.94235 10660 ft 295 kts 284°
2026-04-26 14:12 45.13059 125.91477 10407 ft 284 kts 284°
2026-04-26 14:13 45.14251 125.86388 10148 ft 260 kts 298°
2026-04-26 14:13 45.15353 125.84347 9867 ft 257 kts 307°
2026-04-26 14:13 45.16502 125.82394 9535 ft 253 kts 306°
2026-04-26 14:14 45.17670 125.80559 9194 ft 253 kts 318°
2026-04-26 14:14 45.19237 125.79421 8854 ft 257 kts 344°
2026-04-26 14:14 45.21047 125.79338 8509 ft 261 kts
2026-04-26 14:14 45.22749 125.80297 8164 ft 272 kts 32°
2026-04-26 14:15 45.24260 125.82024 7847 ft 273 kts 37°
2026-04-26 14:15 45.25701 125.83706 7727 ft 261 kts 36°
2026-04-26 14:15 45.27121 125.85284 7533 ft 256 kts 32°
2026-04-26 14:15 45.28594 125.86723 7218 ft 253 kts 31°
2026-04-26 14:16 45.30059 125.88157 6914 ft 251 kts 31°
2026-04-26 14:16 45.31504 125.89581 6613 ft 249 kts 31°
2026-04-26 14:16 45.32910 125.90968 6392 ft 243 kts 31°
2026-04-26 14:16 45.34278 125.92350 6274 ft 233 kts 34°
2026-04-26 14:17 45.35540 125.93806 6004 ft 232 kts 36°
2026-04-26 14:17 45.36791 125.95256 5744 ft 229 kts 36°
2026-04-26 14:17 45.38035 125.96696 5487 ft 226 kts 36°
2026-04-26 14:17 45.39249 125.98103 5236 ft 224 kts 36°
2026-04-26 14:18 45.40459 125.99507 5047 ft 217 kts 36°
2026-04-26 14:18 45.41582 126.00811 4984 ft 200 kts 36°
2026-04-26 14:18 45.42630 126.02028 4916 ft 187 kts 36°
2026-04-26 14:18 45.43632 126.03191 4870 ft 179 kts 35°
2026-04-26 14:19 45.44617 126.04333 4623 ft 181 kts 36°
2026-04-26 14:19 45.45601 126.05460 4336 ft 176 kts 32°
2026-04-26 14:19 45.46577 126.06471 4083 ft 170 kts 34°
2026-04-26 14:19 45.47487 126.07526 3786 ft 164 kts 36°
2026-04-26 14:20 45.48361 126.08572 3508 ft 162 kts 37°
2026-04-26 14:20 45.49230 126.09620 3231 ft 162 kts 37°
2026-04-26 14:20 45.50084 126.10655 2991 ft 158 kts 37°
2026-04-26 14:20 45.50913 126.11650 3054 ft 152 kts 37°
2026-04-26 14:21 45.51729 126.12616 2914 ft 149 kts 36°
2026-04-26 14:21 45.52518 126.13539 2736 ft 147 kts 36°
2026-04-26 14:21 45.53306 126.14459 2546 ft 147 kts 36°
2026-04-26 14:21 45.54091 126.15374 2350 ft 146 kts 36°
2026-04-26 14:22 45.54870 126.16284 2154 ft 145 kts 36°
2026-04-26 14:22 45.55635 126.17178 1960 ft 145 kts 37°
2026-04-26 14:22 45.56418 126.18093 1763 ft 144 kts 37°
2026-04-26 14:22 45.57191 126.18996 1568 ft 144 kts 37°
2026-04-26 14:23 45.57948 126.19882 1377 ft 143 kts 37°
2026-04-26 14:23 45.58727 126.20792 1182 ft 143 kts 37°
2026-04-26 14:23 45.59486 126.21681 993 ft 142 kts 37°
2026-04-26 14:23 45.60241 126.22565 805 ft 142 kts 37°
2026-04-26 14:24 45.61003 126.23457 609 ft 142 kts 38°
2026-04-26 14:24 45.61721 126.24305 511 ft 125 kts 38°
2026-04-26 14:24 45.62276 126.24944 510 ft 77 kts 39°
2026-04-26 14:24 45.62570 126.25283 510 ft 32 kts 40°
2026-04-26 14:25 45.62720 126.25422 510 ft 22 kts 25°
2026-04-26 14:25 45.62847 126.25481 510 ft 16 kts 13°
2026-04-26 14:25 45.62931 126.25455 510 ft 13 kts 295°
2026-04-26 14:25 45.62879 126.25334 510 ft 16 kts 221°
2026-04-26 14:26 45.62779 126.25212 510 ft 19 kts 216°
2026-04-26 14:26 45.62679 126.25089 510 ft 18 kts 217°
2026-04-26 14:26 45.62573 126.24976 510 ft 19 kts 218°
2026-04-26 14:26 45.62466 126.24851 510 ft 20 kts 219°
2026-04-26 14:27 45.62356 126.24721 510 ft 20 kts 219°
2026-04-26 14:27 45.62246 126.24593 510 ft 19 kts 219°
2026-04-26 14:27 45.62143 126.24474 510 ft 19 kts 219°
2026-04-26 14:27 45.62033 126.24345 510 ft 21 kts 219°
2026-04-26 14:28 45.61914 126.24206 510 ft 17 kts 219°
2026-04-26 14:28 45.61851 126.24126 510 ft 7 kts 240°
2026-04-26 14:28 45.61857 126.24057 510 ft 6 kts 291°
2026-04-26 14:28 45.61855 126.23991 510 ft 7 kts 241°
2026-04-26 14:29 45.61812 126.23937 510 ft 9 kts 218°
2026-04-26 14:29 45.61757 126.23875 510 ft 10 kts 219°
2026-04-26 14:29 45.61695 126.23801 510 ft 11 kts 221°
2026-04-26 14:29 45.61705 126.23701 510 ft 12 kts 307°
2026-04-26 14:30 45.61744 126.23669 510 ft 3 kts 26°
2026-04-26 14:30 45.61755 126.23677 510 ft 1 kts 31°
2026-04-26 14:30 45.61763 126.23684 510 ft 1 kts 32°
2026-04-26 14:30 45.61771 126.23692 510 ft 1 kts 36°
2026-04-26 14:31 45.61778 126.23700 510 ft 1 kts 38°
2026-04-26 14:31 45.61781 126.23704 510 ft 0 kts 38°
2026-04-26 14:31 45.61782 126.23704 510 ft 0 kts 38°